Willimantic, CT

9:20 PM EDT on August 19, 2017 (GMT -0400)
Windham

Weather History for KIJD - February, 2014

Change the Weather History Date:

Thursday, February 20, 2014

  Actual Average Record
Temperature  
Mean Temperature 36 °F -  
Max Temperature 48 °F 41 °F 62 °F (1961)
Min Temperature 24 °F 19 °F -6 °F (1978)
Degree Days  
Heating Degree Days 29    
Moisture  
Dew Point 25 °F    
Average Humidity 71    
Maximum Humidity 100    
Minimum Humidity 28    
Precipitation  
Precipitation 0.13 in - - ()
Sea Level Pressure  
Sea Level Pressure 30.14 in    
Wind  
Wind Speed 5 mph (SW)    
Max Wind Speed 14 mph    
Max Gust Speed 22 mph    
Visibility 7 miles    
Events Fog , Rain    
Averages and records for this station are not official NWS values.
T = Trace of Precipitation, MM = Missing Value Source: NWS Daily Summary

Daily Weather History Graph

Daily Weather History Graph

Search for Another Location

Airport or City:

Trip Planner

Search our weather history database for the weather conditions in past years. The results will help you decide how hot, cold, wet, or windy it might be!

Date:

Astronomy

Feb. 20, 2014 Rise Set
Actual Time 6:37 AM EST 5:28 PM EST
Civil Twilight 6:08 AM EST 5:56 PM EST
Nautical Twilight 5:36 AM EST 6:28 PM EST
Astronomical Twilight 5:04 AM EST 7:01 PM EST
Moon 11:25 PM EST 9:13 AM EST
Length of Visible Light 11h 47m
Length of Day
10h 51m
Waning Gibbous, 71% of the Moon is Illuminated
Feb 20
Waning Gibbous
Feb 22
Last Quarter
Mar 1
New
Mar 8
First Quarter
Mar 16
Full

Hourly Weather History & Observations

Time (EST) Temp. Windchill Dew Point Humidity Pressure Visibility Wind Dir Wind Speed Gust Speed Precip Events Conditions
12:52 AM 37.9 °F 29.6 °F 30.9 °F 76% 29.94 in 10.0 mi WNW 13.8 mph 21.9 mph N/A   Partly Cloudy
1:52 AM 37.9 °F 32.7 °F 30.9 °F 76% 29.98 in 10.0 mi Variable 6.9 mph - N/A   Clear
2:52 AM 34.0 °F 31.0 °F 28.9 °F 82% 30.02 in 9.0 mi South 3.5 mph - N/A   Clear
3:52 AM 32.0 °F 27.5 °F 28.0 °F 85% 30.06 in 7.0 mi South 4.6 mph - N/A   Clear
4:34 AM 28.0 °F - 26.1 °F 92% 30.08 in 2.0 mi Calm Calm - N/A   Partly Cloudy
4:48 AM 28.4 °F 24.6 °F 26.6 °F 93% 30.09 in 1.8 mi Variable 3.5 mph - N/A   Clear
4:52 AM 28.0 °F 22.8 °F 25.0 °F 88% 30.09 in 3.0 mi SSE 4.6 mph - N/A   Clear
5:46 AM 26.6 °F - 24.8 °F 93% 30.12 in 2.0 mi Calm Calm - N/A   Partly Cloudy
5:47 AM 24.8 °F - 24.8 °F 100% 30.12 in 1.2 mi Calm Calm - N/A   Partly Cloudy
5:49 AM 24.8 °F - 24.8 °F 100% 30.12 in 0.8 mi Calm Calm - N/A   Mist
5:52 AM 25.0 °F - 24.1 °F 96% 30.13 in 0.5 mi Calm Calm - N/A Fog Light Freezing Fog
6:02 AM 26.1 °F - 23.0 °F 88% 30.13 in 2.0 mi Calm Calm - N/A   Partly Cloudy
6:09 AM 26.1 °F - 23.0 °F 88% 30.13 in 6.0 mi Calm Calm - N/A   Partly Cloudy
6:52 AM 27.0 °F 20.5 °F 24.1 °F 89% 30.18 in 4.0 mi West 5.8 mph - N/A   Clear
7:52 AM 33.1 °F 30.0 °F 26.1 °F 75% 30.21 in 9.0 mi West 3.5 mph - N/A   Clear
8:52 AM 37.0 °F 34.5 °F 26.1 °F 65% 30.23 in 10.0 mi Variable 3.5 mph - N/A   Clear
9:52 AM 41.0 °F 39.0 °F 25.0 °F 53% 30.22 in 10.0 mi Variable 3.5 mph - N/A   Clear
10:52 AM 43.0 °F 39.5 °F 23.0 °F 45% 30.22 in 10.0 mi WSW 5.8 mph - N/A   Clear
11:52 AM 45.0 °F 41.8 °F 21.9 °F 40% 30.22 in 10.0 mi SW 5.8 mph - N/A   Clear
12:52 PM 46.0 °F 42.5 °F 19.0 °F 34% 30.20 in 10.0 mi SW 6.9 mph - N/A   Clear
1:52 PM 48.9 °F - 18.0 °F 29% 30.19 in 10.0 mi Variable 5.8 mph - N/A   Clear
2:52 PM 48.0 °F - 16.0 °F 28% 30.19 in 10.0 mi SSW 4.6 mph - N/A   Clear
3:52 PM 48.0 °F - 21.0 °F 34% 30.18 in 10.0 mi Variable 3.5 mph - N/A   Clear
4:52 PM 46.0 °F 43.9 °F 19.9 °F 35% 30.20 in 10.0 mi South 4.6 mph - N/A   Scattered Clouds
5:52 PM 44.1 °F 40.8 °F 19.9 °F 38% 30.17 in 10.0 mi South 5.8 mph - N/A   Overcast
6:52 PM 42.1 °F 38.4 °F 21.9 °F 45% 30.18 in 10.0 mi South 5.8 mph - N/A   Overcast
7:52 PM 39.9 °F 37.8 °F 24.1 °F 53% 30.20 in 10.0 mi WNW 3.5 mph - 0.00 in Rain Light Rain
8:52 PM 35.1 °F - 30.9 °F 85% 30.18 in 5.0 mi Calm Calm - 0.05 in Rain Rain
9:52 PM 34.0 °F - 33.1 °F 96% 30.17 in 3.0 mi Calm Calm - 0.05 in Rain Rain
10:52 PM 34.0 °F 31.0 °F 32.0 °F 92% 30.14 in 9.0 mi NE 3.5 mph - 0.03 in Rain Light Rain
11:39 PM 35.1 °F 32.2 °F 32.0 °F 89% 30.13 in 10.0 mi NE 3.5 mph - 0.00 in   Overcast
11:52 PM 34.0 °F - 30.9 °F 89% 30.13 in 10.0 mi Calm Calm - 0.00 in   Overcast